Location: *
(43.0167°S, 179.9000°E)
Time: 20:05:21
(UTC+00:00)

ADEOS Rocket - Pass Details

Date: 12 August 2024
Orbit: 858 x 1305 km, 98.7° (Epoch: 19 September)

Event Time Altitude Azimuth Distance (km) Brightness Sun altitude
Rises 18:06:45 0° 6° (N) 3,849 6.3 -9.7°
Reaches altitude 10° 18:09:12 10° 2° (N) 2,960 5.7 -9.2°
Maximum altitude 18:15:58 65° 281° (W) 1,300 3.5 -8.0°
Drops below altitude 10° 18:23:31 10° 199° (SSW) 3,276 5.4 -6.7°
Sets 18:26:21 0° 195° (SSW) 4,286 6.1 -6.2°
